User: anonymous
Location: Clatteringshaws Loch
(55.0508°N, 4.2860°W)
Time: 20:47:20
(UTC+01:00)
Language:

ALOS - Orbit

View from above orbital plane
View from above orbital plane
View from above satellite
View from above satellite

Ground track
Ground track

The orbit data is extracted from the following two-line orbital elements,

1 28931U 06002A   14234.82042050  .00000324  00000-0  74654-4 0   222
2 28931 097.9772 290.5449 0000738 067.3795 061.6473 14.61246568457055
Epoch (UTC): 22 August 2014 19:41:24
Eccentricity: 0.0000738
inclination: 97.9772°
perigee height: 688 km
apogee height: 689 km
right ascension of ascending node: 290.5449°
argument of perigee: 67.3795°
revolutions per day: 14.61246568
mean anomaly at epoch: 61.6473°
orbit number at epoch: 45705

The dashed part of the orbit path shows where the satellite is in the earth's shadow,  

DLR